Back to catalog

STARLINK-4199

AliveCommunicationsVLEO
NORAD 52857·PAYLOAD·🇺🇸 United States

Launched Jun 17, 2022 from Cape Canaveral Space Force Station

Loading…

Next Passes (next 24 hours)

TLE

FreshSource: CelesTrak SupGP

Epoch: Sep 15, 2026, 01:31 UTC

1 52857C 22062AD  26258.06368056 -.00021167  00000+0 -62543-3 0  2585
2 52857  53.1572 243.4835 0001302  95.3613 308.4232 15.34399299    11

Track STARLINK-4199 in real time with AllMySat

Download on the App Store